Regional Weather Roundup
Issued by NWS

Home | Current Version | Previous Version | Text Only | Print | Product List | Glossary On
Versions: 1 2 3 4 5 6 7 8 9 10 11 12 13 14 15 16 17 18 19 20 21 22 23 24 25 26 27 28 29 30 31 32 33 34 35 36 37 38 39 40 41 42 43 44 45 46 47 48 49 50
000
ASUS46 KPQR 261910
RWROR

OREGON REGIONAL WEATHER ROUNDUP
NATIONAL WEATHER SERVICE PORTLAND OR
1200 PM PDT MON JUN 26 2017

NOTE: "FAIR" INDICATES FEW OR NO CLOUDS BELOW 12,000 FEET WITH
NO SIGNIFICANT WEATHER AND/OR OBSTRUCTIONS TO VISIBILITY.

ORZ001>013-262000-
NORTHWEST OREGON


CITY           SKY/WX    TMP DP  RH WIND       PRES   REMARKS
ASTORIA        CLOUDY    61  52  72 W9        30.03R
NEWPORT        CLOUDY    61  55  82 SW10      30.08S
PORTLAND       CLOUDY    66  55  67 NW8       30.00S
VANCOUVER WA   CLOUDY    66  58  75 NW7       29.99S
SCAPPOOSE      PTSUNNY   67  55  65 VRB6      29.99S
HILLSBORO      CLOUDY    67  56  67 E3        29.99S
AURORA         PTSUNNY   69  53  56 CALM      30.00S
MCMINNVILLE    PTSUNNY   68  55  63 CALM      30.00S
SALEM          MOSUNNY   71  55  56 NW9       29.98S
CORVALLIS      MOSUNNY   70  54  56 NW6       30.02S
EUGENE         MOSUNNY   68  55  63 SW10      30.01F
$$

ORZ021-028-262000-
SOUTHWEST OREGON


CITY           SKY/WX    TMP DP  RH WIND       PRES   REMARKS
NORTH BEND     CLOUDY    59  55  88 W9G23     30.07R
BROOKINGS      CLOUDY    60  54  80 VRB3      30.07R
ROSEBURG       SUNNY     70  56  61 NE6       30.00S
SEXTON SUMMIT  SUNNY     69  57  65 VRB5      30.06S
GRANTS PASS    FAIR      82  61  47 CALM      29.96F
MEDFORD        SUNNY     86  61  42 N8        29.91F
$$

ORZ014>016-041-262000-
COLUMBIA GORGE


CITY           SKY/WX    TMP DP  RH WIND       PRES   REMARKS
TROUTDALE      PTSUNNY   67  55  65 CALM      29.98F
HOOD RIVER     MOSUNNY   73  54  49 W17G29    29.88F
THE DALLES     SUNNY     81  57  43 N22G29    29.82S
$$

ORZ029>031-041-044-049-050-061>064-502-503-505>511-262000-
EASTERN OREGON


CITY           SKY/WX    TMP DP  RH WIND       PRES   REMARKS
MADRAS         SUNNY     90  46  22 NW3       29.92S
REDMOND        SUNNY     91  42  18 W6        29.93F
BEND           SUNNY    N/A N/A N/A MISG      29.96F
PRINEVILLE     SUNNY     88  45  22 W9G15     29.94F
KLAMATH FALLS  SUNNY     83  44  25 VRB6      30.04F
LAKEVIEW       SUNNY     80  52  37 SE8       30.09F
HERMISTON      SUNNY     95  56  26 W9        29.75F HX  93
PENDLETON      SUNNY     96  53  23 W10G17    29.80F HX  93
JOHN DAY       MOSUNNY   88  45  22 CALM      29.95S
MEACHAM        SUNNY     87  36  16 CALM      29.96F
LA GRANDE      SUNNY     86  48  26 NE6       29.89F
BAKER CITY     SUNNY     84  46  26 W5        29.93F
BURNS          LGT RAIN  75  46  35 W13G37    29.99F
ROME             N/A     93  35  13 VRB6      29.96F
ONTARIO        SUNNY     88  47  24 CALM      29.88F
$$



USA.gov is the U.S. government's official web portal to all federal, state and local government web resources and services.